This is the latest recevied weather packets stored in our database for station/object OK1UZT-14. If no packets are shown the sender has not sent any weather packets the latest 10 day(s).
| Time | Temp. | Humidity | Pressure | Rain* | Wind** | Luminosity | Snow |
|---|---|---|---|---|---|---|---|
| 1788724937 | 15° C | 53% | 1027.5 hPa | - | - | - | - |
| 1788723136 | 15.56° C | 52% | 1027.6 hPa | - | - | - | - |
| 1788722537 | 15.56° C | 51% | 1027.5 hPa | - | - | - | - |
| 1788721936 | 15.56° C | 51% | 1027.4 hPa | - | - | - | - |
| 1788721336 | 16.11° C | 50% | 1027.3 hPa | - | - | - | - |
| 1788719536 | 16.11° C | 50% | 1027.2 hPa | - | - | - | - |
| 1788718936 | 16.11° C | 50% | 1027.1 hPa | - | - | - | - |
| 1788715935 | 16.11° C | 50% | 1026.6 hPa | - | - | - | - |
| 1788715335 | 16.67° C | 49% | 1026.5 hPa | - | - | - | - |
| 1788714735 | 16.67° C | 49% | 1026.5 hPa | - | - | - | - |
| 1788712935 | 17.22° C | 47% | 1026.3 hPa | - | - | - | - |
| 1788711735 | 17.78° C | 45% | 1026.3 hPa | - | - | - | - |
| 1788711135 | 17.78° C | 45% | 1026.3 hPa | - | - | - | - |
| 1788710535 | 17.78° C | 45% | 1026.2 hPa | - | - | - | - |
| 1788709935 | 17.78° C | 45% | 1026.3 hPa | - | - | - | - |
| 1788708735 | 17.78° C | 44% | 1026.2 hPa | - | - | - | - |
| 1788708135 | 18.33° C | 44% | 1026.1 hPa | - | - | - | - |
| 1788707539 | 18.33° C | 43% | 1026.2 hPa | - | - | - | - |
| 1788706935 | 17.78° C | 45% | 1026.1 hPa | - | - | - | - |
| 1788706335 | 18.33° C | 44% | 1025.9 hPa | - | - | - | - |
| 1788705135 | 18.33° C | 44% | 1025.9 hPa | - | - | - | - |
| 1788704535 | 17.78° C | 44% | 1025.8 hPa | - | - | - | - |
| 1788703935 | 17.78° C | 44% | 1025.9 hPa | - | - | - | - |
| 1788703335 | 18.33° C | 44% | 1025.7 hPa | - | - | - | - |
| 1788702735 | 18.33° C | 43% | 1025.8 hPa | - | - | - | - |
* Rain since midnight (hover to see other rain measurements)
** Current wind speed in m/s (hover to see current wind gust speed)